Miscellaneous Local Product
Issued by NWS North Platte, NE

Home | Current Version | Previous Version | Text Only | Print | Product List | Glossary On
Versions: 1 2 3 4 5 6 7 8 9 10 11 12 13 14 15 16 17 18 19 20 21 22 23 24 25 26 27 28 29 30 31 32 33 34 35 36 37 38 39 40 41 42 43 44 45 46 47 48 49 50
000
AXUS43 KLBF 300910
MISLBF


WESTERN AND NORTH CENTRAL NEBRASKA HOURLY WEATHER ROUNDUP
NATIONAL WEATHER SERVICE NORTH PLATTE NE
400 AM CDT THU JUL 30 2015

***STATIONS NOT REPORTING VARIABLES SUCH AS SKY/WEATHER OR
PRESSURE ARE PROVIDED BY THE NEBRASKA DEPARTMENT OF
ROADS...RAWS...AND APRS NETWORKS...AND ARE NOT UNDER
NATIONAL WEATHER SERVICE QUALITY CONTROL***

...OBSERVATIONS IN AND NEAR THE EASTERN PANHANDLE OF NEBRASKA...

CITY           SKY/WX    TMP DP  RH WIND       PRES   REMARKS
PINE RIDGE     CLEAR     52  47  83 CALM      30.21S
CHADRON        CLEAR     54  50  86 CALM      30.21S
ALLIANCE       PTCLDY    56  48  74 S3        30.25S
SIDNEY         CLEAR     61  50  67 S12       30.28S
BIG SPRINGS      N/A     62  52  71 S9          N/A
$$

...OBSERVATIONS IN NORTH CENTRAL NEBRASKA...

CITY           SKY/WX    TMP DP  RH WIND       PRES   REMARKS
VALENTINE      CLEAR     58  50  75 SW7       30.20S
THEDFORD       CLEAR     65  54  66 SW6       30.23S
AINSWORTH      CLEAR     62  54  76 W3        30.21S
O`NEILL        CLEAR     60  54  80 W3        30.19S
ORD            CLEAR     58  53  84 CALM      30.21R
BROKEN BOW     CLEAR     59  53  80 S5        30.23S
SPRINGVIEW       N/A     59  54  84 CALM        N/A
CHAMBERS         N/A     63  52  67 S3          N/A
EWING            N/A     60  55  85 CALM        N/A
$$

...OBSERVATIONS IN SOUTHWEST NEBRASKA AND FAR NORTHEAST COLORADO...

CITY           SKY/WX    TMP DP  RH WIND       PRES   REMARKS
WRAY           FAIR      60  54  80 S5        30.28F
HOLYOKE        FAIR      59  54  82 SW3       30.28S
IMPERIAL       CLEAR     59  52  77 S5        30.27R
OGALLALA       CLEAR     58  51  77 CALM      30.26S
NORTH PLATTE   CLEAR     57  52  83 E5        30.25S
MCCOOK         CLEAR     60  53  77 MISG      30.25S
LEXINGTON      CLEAR     60  55  83 S6        30.25S
PAXTON           N/A     59  54  84 CALM        N/A
BRADY            N/A     57  53  85 CALM        N/A
CALLAWAY         N/A     60  56  87 S9          N/A
$$

...NORTH PLATTE AREA...

CITY           SKY/WX    TMP DP  RH WIND       PRES   REMARKS
AIRPORT        CLEAR     57  52  83 E5        30.25S
DOWNTOWN         N/A     62  55  77 CALM        N/A
SANDRIDGE        N/A     60  53  79 CALM        N/A
HILLCREST        N/A     60  54  81 SE5         N/A
$$

...SOME WEATHER OBSERVATIONS FROM AROUND THE REGION...

CITY           SKY/WX    TMP DP  RH WIND       PRES   REMARKS
DENVER         PTCLDY    67  50  54 SW9       30.29R
LARAMIE        CLEAR     48  34  58 SW5       30.44R
CHEYENNE       CLEAR     56  47  71 W7        30.36S
SCOTTSBLUFF    CLEAR     61  49  64 E6        30.25S
RAPID CITY     CLEAR     57  47  69 N9        30.22S
PIERRE         CLEAR     57  48  72 CALM      30.12S
WINNER         FAIR      70  51  51 SW9       30.15S
SIOUX FALLS    CLEAR     62  57  83 W3        30.13R
OMAHA          CLEAR     65  60  84 SE7       30.17R
GRAND ISLAND   CLEAR     59  52  77 CALM      30.22S
KANSAS CITY    PTCLDY    65  63  93 MISG      30.18R
WICHITA        MOCLDY    76  66  71 E9        30.15F
HAYS           CLOUDY    66  55  68 NE7       30.22F
LIBERAL        MOCLDY    70  64  83 E7        30.22S
GOODLAND       PTCLDY    62  57  83 S8        30.28F
$$



USA.gov is the U.S. government's official web portal to all federal, state and local government web resources and services.